• în România
  • Lista ţărilor
  • Pe 7 zile
  • Temperatura apei
  • Hartă satelitară
  • Meteo pe hartă
  • Widget-uri
  • user-avatar
    Intrare

    Meteo pe oră la Booué

    Astăzi, 16 Octombrie, Marţi

    Timp Temperatura Precipitaţii Vânt Presiune Umiditate
    00:00 +24°C° 0.3 mm 1 m/s 735 mmHg 98%
    01:00 +22°C° 0 mm 0 m/s 735 mmHg 98%
    02:00 +22°C° 0.3 mm 0 m/s 735 mmHg 98%
    03:00 +22°C° 0.3 mm 0 m/s 735 mmHg 99%
    04:00 +22°C° 0.3 mm 0 m/s 735 mmHg 99%
    05:00 +22°C° 0 mm 0 m/s 735 mmHg 98%
    06:00 +22°C° 0 mm 0 m/s 735 mmHg 98%
    07:00 +23°C° 0 mm 0 m/s 736 mmHg 97%
    08:00 +26°C° 0 mm 1 m/s 736 mmHg 89%
    09:00 +28°C° 0 mm 1 m/s 736 mmHg 80%
    10:00 +30°C° 0 mm 1 m/s 736 mmHg 72%
    11:00 +31°C° 0.4 mm 1 m/s 735 mmHg 68%
    12:00 +32°C° 0.4 mm 1 m/s 735 mmHg 65%
    13:00 +33°C° 0.4 mm 1 m/s 734 mmHg 61%
    14:00 +32°C° 1.6 mm 1 m/s 733 mmHg 69%
    15:00 +31°C° 1.6 mm 1 m/s 733 mmHg 77%
    16:00 +30°C° 1.6 mm 1 m/s 733 mmHg 85%
    17:00 +28°C° 3.9 mm 1 m/s 733 mmHg 89%
    18:00 +27°C° 3.9 mm 1 m/s 734 mmHg 93%
    19:00 +25°C° 3.9 mm 1 m/s 734 mmHg 96%
    20:00 +25°C° 0.3 mm 1 m/s 735 mmHg 97%
    21:00 +25°C° 0.3 mm 1 m/s 735 mmHg 97%
    22:00 +24°C° 0.3 mm 1 m/s 736 mmHg 97%
    23:00 +24°C° 0 mm 1 m/s 735 mmHg 98%

    Mâine, 17 Octombrie, Miercuri

    Timp Temperatura Precipitaţii Vânt Presiune Umiditate
    00:00 +24°C° 0 mm 1 m/s 735 mmHg 98%
    01:00 +24°C° 0 mm 1 m/s 735 mmHg 98%
    02:00 +24°C° 0 mm 1 m/s 734 mmHg 98%
    03:00 +24°C° 0 mm 1 m/s 734 mmHg 98%
    04:00 +24°C° 0 mm 1 m/s 734 mmHg 98%
    05:00 +24°C° 0 mm 1 m/s 734 mmHg 97%
    06:00 +24°C° 0 mm 1 m/s 734 mmHg 97%
    07:00 +25°C° 0 mm 1 m/s 735 mmHg 96%
    08:00 +26°C° 0 mm 1 m/s 735 mmHg 91%
    09:00 +27°C° 0 mm 1 m/s 736 mmHg 85%
    10:00 +28°C° 0 mm 1 m/s 736 mmHg 80%
    11:00 +29°C° 0 mm 1 m/s 735 mmHg 76%
    12:00 +29°C° 0 mm 1 m/s 734 mmHg 72%
    13:00 +30°C° 0 mm 1 m/s 733 mmHg 68%
    14:00 +31°C° 0.9 mm 1 m/s 733 mmHg 69%
    15:00 +31°C° 0.9 mm 1 m/s 732 mmHg 71%
    16:00 +31°C° 0.9 mm 1 m/s 732 mmHg 72%
    17:00 +29°C° 2.3 mm 1 m/s 732 mmHg 80%
    18:00 +27°C° 2.3 mm 1 m/s 733 mmHg 87%
    19:00 +25°C° 2.3 mm 1 m/s 733 mmHg 95%
    20:00 +25°C° 2.4 mm 1 m/s 734 mmHg 95%
    21:00 +25°C° 2.4 mm 1 m/s 735 mmHg 96%
    22:00 +24°C° 2.4 mm 1 m/s 735 mmHg 96%
    23:00 +24°C° 0.3 mm 1 m/s 735 mmHg 97%

    Poimâine, 18 Octombrie, Joi

    Timp Temperatura Precipitaţii Vânt Presiune Umiditate
    00:00 +24°C° 0.3 mm 1 m/s 735 mmHg 97%
    01:00 +24°C° 0.3 mm 1 m/s 734 mmHg 98%
    02:00 +24°C° 0 mm 1 m/s 734 mmHg 98%
    03:00 +24°C° 0 mm 1 m/s 733 mmHg 98%
    04:00 +24°C° 0 mm 1 m/s 733 mmHg 98%
    05:00 +24°C° 0 mm 1 m/s 733 mmHg 98%
    06:00 +24°C° 0 mm 1 m/s 734 mmHg 98%
    07:00 +24°C° 0 mm 1 m/s 735 mmHg 97%
    08:00 +25°C° 0.3 mm 1 m/s 735 mmHg 92%
    09:00 +27°C° 0.3 mm 1 m/s 735 mmHg 86%
    10:00 +28°C° 0.3 mm 1 m/s 735 mmHg 80%
    11:00 +29°C° 0.9 mm 1 m/s 735 mmHg 80%
    12:00 +29°C° 0.9 mm 1 m/s 734 mmHg 80%
    13:00 +30°C° 0.9 mm 1 m/s 733 mmHg 80%
    14:00 +29°C° 1.4 mm 1 m/s 732 mmHg 83%
    15:00 +29°C° 1.4 mm 1 m/s 732 mmHg 86%
    16:00 +28°C° 1.4 mm 1 m/s 731 mmHg 89%
    17:00 +27°C° 0.6 mm 1 m/s 732 mmHg 92%
    18:00 +26°C° 0.6 mm 1 m/s 732 mmHg 94%
    19:00 +25°C° 0.6 mm 1 m/s 733 mmHg 97%
    20:00 +25°C° 0 mm 1 m/s 733 mmHg 97%
    21:00 +22°C° 0 mm 0 m/s 734 mmHg 97%
    22:00 +22°C° 0 mm 0 m/s 734 mmHg 97%
    23:00 +22°C° 0.3 mm 0 m/s 734 mmHg 97%

    19 Octombrie, Vineri

    Timp Temperatura Precipitaţii Vânt Presiune Umiditate
    00:00 +22°C° 0.3 mm 0 m/s 734 mmHg 97%
    01:00 +22°C° 0.3 mm 0 m/s 734 mmHg 97%
    02:00 +22°C° 0 mm 0 m/s 733 mmHg 97%
    03:00 +21°C° 0 mm 0 m/s 733 mmHg 98%
    04:00 +23°C° 0 mm 1 m/s 733 mmHg 98%
    05:00 +21°C° 0.1 mm 0 m/s 733 mmHg 98%
    06:00 +22°C° 0.1 mm 0 m/s 734 mmHg 97%
    07:00 +22°C° 0.1 mm 0 m/s 734 mmHg 97%
    08:00 +25°C° 0 mm 1 m/s 735 mmHg 90%
    09:00 +27°C° 0 mm 1 m/s 735 mmHg 82%
    10:00 +29°C° 0 mm 1 m/s 735 mmHg 75%
    11:00 +30°C° 0 mm 1 m/s 735 mmHg 70%
    12:00 +31°C° 0 mm 1 m/s 734 mmHg 64%
    13:00 +32°C° 0 mm 2 m/s 733 mmHg 59%
    14:00 +31°C° 0.3 mm 1 m/s 733 mmHg 62%
    15:00 +31°C° 0.3 mm 1 m/s 732 mmHg 65%
    16:00 +30°C° 0.3 mm 1 m/s 731 mmHg 68%
    17:00 +28°C° 0 mm 1 m/s 732 mmHg 74%
    18:00 +27°C° 0 mm 1 m/s 732 mmHg 81%
    19:00 +23°C° 0 mm 0 m/s 733 mmHg 87%
    20:00 +23°C° 0.2 mm 0 m/s 733 mmHg 88%
    21:00 +22°C° 0.2 mm 0 m/s 734 mmHg 89%
    22:00 +22°C° 0.2 mm 0 m/s 734 mmHg 90%
    23:00 +22°C° 0 mm 0 m/s 734 mmHg 91%

    20 Octombrie, Sâmbătă

    Timp Temperatura Precipitaţii Vânt Presiune Umiditate
    00:00 +22°C° 0 mm 0 m/s 733 mmHg 92%
    01:00 +21°C° 0 mm 0 m/s 733 mmHg 93%
    02:00 +21°C° 0 mm 0 m/s 733 mmHg 93%
    03:00 +21°C° 0 mm 0 m/s 733 mmHg 94%
    04:00 +21°C° 0 mm 0 m/s 732 mmHg 95%
    05:00 +21°C° 0 mm 0 m/s 733 mmHg 93%
    06:00 +22°C° 0 mm 0 m/s 734 mmHg 92%
    07:00 +22°C° 0 mm 0 m/s 734 mmHg 90%
    08:00 +25°C° 0 mm 0 m/s 734 mmHg 80%
    09:00 +29°C° 0 mm 1 m/s 735 mmHg 69%
    10:00 +32°C° 0 mm 1 m/s 735 mmHg 59%
    11:00 +33°C° 0 mm 1 m/s 734 mmHg 55%
    12:00 +32°C° 0 mm 0 m/s 733 mmHg 52%
    13:00 +34°C° 0 mm 0 m/s 732 mmHg 48%
    14:00 +32°C° 0.4 mm 0 m/s 732 mmHg 56%
    15:00 +31°C° 0.4 mm 0 m/s 731 mmHg 64%
    16:00 +31°C° 0.4 mm 1 m/s 731 mmHg 71%
    17:00 +29°C° 0.4 mm 1 m/s 731 mmHg 78%
    18:00 +28°C° 0.4 mm 1 m/s 732 mmHg 84%
    19:00 +26°C° 0.4 mm 1 m/s 732 mmHg 90%
    20:00 +26°C° 0.6 mm 1 m/s 733 mmHg 92%
    21:00 +25°C° 0.6 mm 1 m/s 733 mmHg 93%
    22:00 +25°C° 0.6 mm 1 m/s 733 mmHg 95%
    23:00 +25°C° 0.2 mm 1 m/s 733 mmHg 95%

    21 Octombrie, Duminică

    Timp Temperatura Precipitaţii Vânt Presiune Umiditate
    00:00 +24°C° 0.2 mm 1 m/s 732 mmHg 96%
    01:00 +24°C° 0.2 mm 1 m/s 732 mmHg 96%
    02:00 +22°C° 0 mm 0 m/s 732 mmHg 97%
    03:00 +22°C° 0 mm 0 m/s 732 mmHg 97%
    04:00 +22°C° 0 mm 0 m/s 732 mmHg 98%
    05:00 +22°C° 0 mm 0 m/s 732 mmHg 97%
    06:00 +23°C° 0 mm 0 m/s 733 mmHg 96%
    07:00 +23°C° 0 mm 0 m/s 734 mmHg 95%
    08:00 +25°C° 0 mm 0 m/s 734 mmHg 86%
    09:00 +27°C° 0 mm 0 m/s 733 mmHg 76%
    10:00 +29°C° 0 mm 0 m/s 733 mmHg 67%
    11:00 +31°C° 0.2 mm 0 m/s 733 mmHg 63%
    12:00 +32°C° 0.2 mm 0 m/s 732 mmHg 58%
    13:00 +33°C° 0.2 mm 0 m/s 731 mmHg 54%
    14:00 +33°C° 0.2 mm 0 m/s 730 mmHg 54%
    15:00 +32°C° 0.2 mm 0 m/s 730 mmHg 54%
    16:00 +34°C° 0.2 mm 1 m/s 730 mmHg 55%
    17:00 +32°C° 0.5 mm 1 m/s 730 mmHg 64%
    18:00 +30°C° 0.5 mm 1 m/s 731 mmHg 74%
    19:00 +27°C° 0.5 mm 1 m/s 731 mmHg 84%
    20:00 +27°C° 0.9 mm 1 m/s 732 mmHg 87%
    21:00 +26°C° 0.9 mm 1 m/s 732 mmHg 89%
    22:00 +24°C° 0.9 mm 0 m/s 732 mmHg 92%
    23:00 +24°C° 0.7 mm 0 m/s 732 mmHg 93%
    Arată mai mult